Time,TemperatureF,DewpointF,PressureIn,WindDirection,WindDirectionDegrees,WindSpeedMPH,WindSpeedGustMPH,Humidity,HourlyPrecipIn,Conditions,Clouds,dailyrainin,SolarRadiationWatts/m^2,SoftwareType,DateUTC
2013-08-19 00:03:00,55.0,54.0,-100.00,SSE,164,4.0,6.0,96,-99.99,,,0.00,0.000000,,2013-08-19 04:03:00,
2013-08-19 00:43:00,56.0,55.0,-100.00,South,170,3.0,5.0,98,-99.99,,,-99.99,0.000000,,2013-08-19 04:43:00,
2013-08-19 00:53:00,56.0,55.0,-100.00,South,170,3.0,5.0,98,-99.99,,,-99.99,0.000000,,2013-08-19 04:53:00,
2013-08-19 01:02:00,56.0,55.0,-100.00,South,170,3.0,5.0,98,-99.99,,,-99.99,0.000000,,2013-08-19 05:02:00,
2013-08-19 01:11:00,56.0,55.0,-100.00,South,170,3.0,5.0,98,-99.99,,,-99.99,0.000000,,2013-08-19 05:11:00,
2013-08-19 01:42:00,56.0,56.0,-100.00,South,175,0.0,3.0,99,0.00,,,0.00,0.000000,,2013-08-19 05:42:00,
2013-08-19 01:52:00,56.0,56.0,-100.00,South,175,0.0,3.0,99,0.00,,,0.00,0.000000,,2013-08-19 05:52:00,
2013-08-19 02:02:00,56.0,56.0,-100.00,South,175,0.0,3.0,99,0.00,,,0.00,0.000000,,2013-08-19 06:02:00,
2013-08-19 02:11:00,56.0,56.0,-100.00,South,175,0.0,3.0,99,0.00,,,0.00,0.000000,,2013-08-19 06:11:00,
2013-08-19 02:42:00,55.0,55.0,-100.00,SSE,148,2.0,3.0,99,0.00,,,0.00,0.000000,,2013-08-19 06:42:00,
2013-08-19 02:52:00,55.0,55.0,-100.00,SSE,148,2.0,3.0,99,0.00,,,0.00,0.000000,,2013-08-19 06:52:00,
2013-08-19 03:01:00,55.0,55.0,-100.00,SSE,148,2.0,3.0,99,0.00,,,0.00,0.000000,,2013-08-19 07:01:00,
2013-08-19 03:12:00,55.0,55.0,-100.00,SSE,148,2.0,3.0,99,0.00,,,0.00,0.000000,,2013-08-19 07:12:00,
2013-08-19 03:42:00,55.0,55.0,-100.00,SSE,151,3.0,4.0,99,0.00,,,0.00,0.000000,,2013-08-19 07:42:00,
2013-08-19 03:52:00,55.0,55.0,-100.00,SSE,151,3.0,4.0,99,0.00,,,0.00,0.000000,,2013-08-19 07:52:00,
2013-08-19 04:02:00,55.0,55.0,-100.00,SSE,151,3.0,4.0,99,0.00,,,0.00,0.000000,,2013-08-19 08:02:00,
2013-08-19 04:11:00,55.0,55.0,-100.00,SSE,151,3.0,4.0,99,0.00,,,0.00,0.000000,,2013-08-19 08:11:00,
2013-08-19 04:42:00,54.0,54.0,-100.00,SSE,161,3.0,3.0,100,0.00,,,0.00,0.000000,,2013-08-19 08:42:00,
2013-08-19 04:52:00,54.0,54.0,-100.00,SSE,161,3.0,3.0,100,0.00,,,0.00,0.000000,,2013-08-19 08:52:00,
2013-08-19 05:01:00,54.0,54.0,-100.00,SSE,161,3.0,3.0,100,0.00,,,0.00,0.000000,,2013-08-19 09:01:00,
2013-08-19 05:11:00,54.0,54.0,-100.00,SSE,161,3.0,3.0,100,0.00,,,0.00,0.000000,,2013-08-19 09:11:00,
2013-08-19 05:43:00,54.0,54.0,-100.00,SSE,163,3.0,4.0,100,0.00,,,0.00,0.000000,,2013-08-19 09:43:00,
2013-08-19 05:53:00,54.0,54.0,-100.00,SSE,163,3.0,4.0,100,0.00,,,0.00,0.000000,,2013-08-19 09:53:00,
2013-08-19 06:03:00,54.0,54.0,-100.00,SSE,163,3.0,4.0,100,0.00,,,0.00,0.000000,,2013-08-19 10:03:00,
2013-08-19 06:12:00,54.0,54.0,-100.00,SSE,163,3.0,4.0,100,0.00,,,0.00,0.000000,,2013-08-19 10:12:00,
2013-08-19 06:43:00,55.0,55.0,-100.00,SSE,163,2.0,4.0,100,0.00,,,0.00,0.000000,,2013-08-19 10:43:00,
2013-08-19 06:52:00,55.0,55.0,-100.00,SSE,163,2.0,4.0,100,0.00,,,0.00,0.000000,,2013-08-19 10:52:00,
2013-08-19 07:02:00,55.0,55.0,-100.00,SSE,163,2.0,4.0,100,0.00,,,0.00,0.000000,,2013-08-19 11:02:00,
2013-08-19 07:12:00,55.0,55.0,-100.00,SSE,163,2.0,4.0,100,0.00,,,0.00,0.000000,,2013-08-19 11:12:00,
2013-08-19 07:45:00,54.0,54.0,-100.00,SSE,161,2.0,3.0,100,0.00,,,0.00,11.000000,,2013-08-19 11:45:00,
2013-08-19 07:52:00,54.0,54.0,-100.00,SSE,161,2.0,3.0,100,0.00,,,0.00,11.000000,,2013-08-19 11:52:00,
2013-08-19 08:02:00,54.0,54.0,-100.00,SSE,161,2.0,3.0,100,0.00,,,0.00,11.000000,,2013-08-19 12:02:00,
2013-08-19 08:11:00,54.0,54.0,-100.00,SSE,161,2.0,3.0,100,0.00,,,0.00,11.000000,,2013-08-19 12:11:00,
2013-08-19 08:42:00,60.0,60.0,-100.00,SSE,162,2.0,3.0,100,0.00,,,0.00,108.000000,,2013-08-19 12:42:00,
2013-08-19 08:52:00,60.0,60.0,-100.00,SSE,162,2.0,3.0,100,0.00,,,0.00,108.000000,,2013-08-19 12:52:00,
2013-08-19 09:03:00,60.0,60.0,-100.00,SSE,162,2.0,3.0,100,0.00,,,0.00,108.000000,,2013-08-19 13:03:00,
2013-08-19 09:13:00,60.0,60.0,-100.00,SSE,162,2.0,3.0,100,0.00,,,0.00,108.000000,,2013-08-19 13:13:00,
2013-08-19 09:42:00,67.0,66.0,-100.00,SW,220,8.0,11.0,97,0.00,,,0.00,280.000000,,2013-08-19 13:42:00,
2013-08-19 09:52:00,67.0,66.0,-100.00,SW,220,8.0,11.0,97,0.00,,,0.00,280.000000,,2013-08-19 13:52:00,
2013-08-19 10:02:00,67.0,66.0,-100.00,SW,220,8.0,11.0,97,0.00,,,0.00,280.000000,,2013-08-19 14:02:00,
2013-08-19 10:11:00,67.0,66.0,-100.00,SW,220,8.0,11.0,97,0.00,,,0.00,280.000000,,2013-08-19 14:11:00,
2013-08-19 10:42:00,72.0,65.0,-100.00,SW,228,9.0,12.0,79,0.00,,,0.00,493.000000,,2013-08-19 14:42:00,
2013-08-19 10:52:00,72.0,65.0,-100.00,SW,228,9.0,12.0,79,0.00,,,0.00,493.000000,,2013-08-19 14:52:00,
2013-08-19 11:01:00,72.0,65.0,-100.00,SW,228,9.0,12.0,79,0.00,,,0.00,493.000000,,2013-08-19 15:01:00,
2013-08-19 11:11:00,72.0,65.0,-100.00,SW,228,9.0,12.0,79,0.00,,,0.00,493.000000,,2013-08-19 15:11:00,
2013-08-19 11:44:00,75.0,64.0,-100.00,SW,225,11.0,16.0,69,0.00,,,0.00,692.000000,,2013-08-19 15:44:00,
2013-08-19 11:54:00,75.0,64.0,-100.00,SW,225,11.0,16.0,69,0.00,,,0.00,692.000000,,2013-08-19 15:54:00,
2013-08-19 12:05:00,75.0,64.0,-100.00,SW,225,11.0,16.0,69,0.00,,,0.00,692.000000,,2013-08-19 16:05:00,
2013-08-19 12:13:00,75.0,64.0,-100.00,SW,225,11.0,16.0,69,0.00,,,0.00,692.000000,,2013-08-19 16:13:00,
2013-08-19 12:47:00,76.0,63.0,-100.00,SW,224,9.0,17.0,65,0.00,,,0.00,617.000000,,2013-08-19 16:47:00,
2013-08-19 13:04:00,76.0,63.0,-100.00,SW,224,9.0,17.0,65,0.00,,,0.00,617.000000,,2013-08-19 17:04:00,
2013-08-19 13:13:00,76.0,63.0,-100.00,SW,224,9.0,17.0,65,0.00,,,0.00,617.000000,,2013-08-19 17:13:00,
2013-08-19 13:14:00,77.0,62.0,-100.00,SW,230,12.0,21.0,59,0.00,,,0.00,955.000000,,2013-08-19 17:14:00,
2013-08-19 13:49:00,77.0,62.0,-100.00,SW,230,12.0,21.0,59,0.00,,,0.00,955.000000,,2013-08-19 17:49:00,
2013-08-19 13:57:00,77.0,62.0,-100.00,SW,230,12.0,21.0,59,0.00,,,0.00,955.000000,,2013-08-19 17:57:00,
2013-08-19 14:05:00,77.0,62.0,-100.00,SW,230,12.0,21.0,59,0.00,,,0.00,955.000000,,2013-08-19 18:05:00,
2013-08-19 14:14:00,78.0,62.0,-100.00,SW,218,14.0,22.0,57,0.00,,,0.00,1007.000000,,2013-08-19 18:14:00,
2013-08-19 14:50:00,-999.0,-99.9,-100.00,SW,218,14.0,22.0,57,0.00,,,0.00,1007.000000,,2013-08-19 18:50:00,
2013-08-19 15:00:00,-999.0,-99.9,-100.00,SW,218,14.0,22.0,57,0.00,,,0.00,1007.000000,,2013-08-19 19:00:00,
2013-08-19 15:07:00,78.0,62.0,-100.00,SW,218,14.0,22.0,57,0.00,,,0.00,1007.000000,,2013-08-19 19:07:00,
2013-08-19 15:14:00,77.0,61.0,-100.00,SW,230,15.0,24.0,58,0.00,,,0.00,948.000000,,2013-08-19 19:14:00,
2013-08-19 15:50:00,77.0,61.0,-100.00,SW,230,15.0,24.0,58,0.00,,,0.00,948.000000,,2013-08-19 19:50:00,
2013-08-19 15:59:00,77.0,61.0,-100.00,SW,230,15.0,24.0,58,0.00,,,0.00,948.000000,,2013-08-19 19:59:00,
2013-08-19 16:08:00,77.0,61.0,-100.00,SW,230,15.0,24.0,58,0.00,,,0.00,948.000000,,2013-08-19 20:08:00,
2013-08-19 16:14:00,78.0,62.0,-100.00,SW,222,13.0,24.0,58,0.00,,,0.00,802.000000,,2013-08-19 20:14:00,
2013-08-19 16:50:00,78.0,62.0,-100.00,SW,222,13.0,24.0,58,0.00,,,0.00,802.000000,,2013-08-19 20:50:00,
2013-08-19 17:00:00,-999.0,-99.9,-100.00,SW,222,13.0,24.0,-999,-99.99,,,-99.99,802.000000,,2013-08-19 21:00:00,
2013-08-19 17:08:00,78.0,62.0,-100.00,SW,222,13.0,24.0,58,0.00,,,0.00,802.000000,,2013-08-19 21:08:00,
2013-08-19 17:46:00,77.0,60.0,-100.00,SW,228,14.0,24.0,56,0.00,,,0.00,671.000000,,2013-08-19 21:46:00,
2013-08-19 17:55:00,77.0,60.0,-100.00,SW,228,14.0,24.0,56,0.00,,,0.00,671.000000,,2013-08-19 21:55:00,
2013-08-19 18:06:00,77.0,60.0,-100.00,SW,228,14.0,24.0,56,0.00,,,0.00,671.000000,,2013-08-19 22:06:00,
2013-08-19 18:14:00,76.0,60.0,-100.00,SW,229,14.0,23.0,58,0.00,,,0.00,438.000000,,2013-08-19 22:14:00,
2013-08-19 18:44:00,76.0,60.0,-100.00,SW,229,14.0,23.0,58,0.00,,,0.00,438.000000,,2013-08-19 22:44:00,
2013-08-19 18:55:00,76.0,60.0,-100.00,SW,229,14.0,23.0,58,0.00,,,0.00,438.000000,,2013-08-19 22:55:00,
2013-08-19 19:05:00,76.0,60.0,-100.00,SW,229,14.0,23.0,58,0.00,,,0.00,438.000000,,2013-08-19 23:05:00,
2013-08-19 19:48:00,74.0,61.0,-100.00,SW,225,10.0,21.0,63,0.00,,,0.00,301.000000,,2013-08-19 23:48:00,
2013-08-19 19:55:00,74.0,61.0,-100.00,SW,225,10.0,21.0,63,0.00,,,0.00,301.000000,,2013-08-19 23:55:00,
2013-08-19 20:02:00,74.0,61.0,-100.00,SW,225,10.0,21.0,63,0.00,,,0.00,301.000000,,2013-08-20 00:02:00,
2013-08-19 20:11:00,74.0,61.0,-100.00,SW,225,10.0,21.0,63,0.00,,,0.00,301.000000,,2013-08-20 00:11:00,
2013-08-19 20:42:00,71.0,60.0,-100.00,SW,224,8.0,14.0,68,0.00,,,0.00,109.000000,,2013-08-20 00:42:00,
2013-08-19 20:53:00,71.0,60.0,-100.00,SW,224,8.0,14.0,68,0.00,,,0.00,109.000000,,2013-08-20 00:53:00,
2013-08-19 21:03:00,71.0,60.0,-100.00,SW,224,8.0,14.0,68,0.00,,,0.00,109.000000,,2013-08-20 01:03:00,
2013-08-19 21:11:00,71.0,60.0,-100.00,SW,224,8.0,14.0,68,0.00,,,0.00,109.000000,,2013-08-20 01:11:00,
2013-08-19 21:42:00,68.0,59.0,-100.00,SW,218,8.0,13.0,74,0.00,,,0.00,9.000000,,2013-08-20 01:42:00,
2013-08-19 21:52:00,68.0,59.0,-100.00,SW,218,8.0,13.0,74,0.00,,,0.00,9.000000,,2013-08-20 01:52:00,
2013-08-19 22:02:00,68.0,59.0,-100.00,SW,218,8.0,13.0,74,0.00,,,0.00,9.000000,,2013-08-20 02:02:00,
2013-08-19 22:11:00,68.0,59.0,-100.00,SW,218,8.0,13.0,74,0.00,,,0.00,9.000000,,2013-08-20 02:11:00,
2013-08-19 22:42:00,67.0,60.0,-100.00,SSW,210,7.0,11.0,79,0.00,,,0.00,0.000000,,2013-08-20 02:42:00,
2013-08-19 22:52:00,67.0,60.0,-100.00,SSW,210,7.0,11.0,79,0.00,,,0.00,0.000000,,2013-08-20 02:52:00,
2013-08-19 23:02:00,67.0,60.0,-100.00,SSW,210,7.0,11.0,79,0.00,,,0.00,0.000000,,2013-08-20 03:02:00,
2013-08-19 23:11:00,67.0,60.0,-100.00,SSW,210,7.0,11.0,79,0.00,,,0.00,0.000000,,2013-08-20 03:11:00,
2013-08-19 23:43:00,68.0,61.0,-100.00,SW,236,9.0,15.0,79,0.00,,,0.00,0.000000,,2013-08-20 03:43:00,
2013-08-19 23:54:00,68.0,61.0,-100.00,SW,236,9.0,15.0,79,0.00,,,0.00,0.000000,,2013-08-20 03:54:00,